Location: Poprad
(49.0500°N, 20.3000°E)
Time: 18:23:25
(UTC+02:00)

ISS - Pass Details

Date: 30 March 2019
Orbit: 408 x 410 km, 51.6° (Epoch: 24 April)

Event Time Altitude Azimuth Distance (km) Brightness Sun altitude
Rises 19:15:06 0° 278° (W) 2,336 1.9 -11.8°
Reaches altitude 10° 19:17:13 10° 284° (WNW) 1,475 0.5 -12.1°
Maximum altitude 19:20:28 52° 2° (N) 519 -3.2 -12.6°
Enters shadow 19:22:41 18° 74° (ENE) 1,079 -2.1 -12.9°
